Calgary Springbank,

4:45 AM MDT on May 24, 2018 (GMT -0600)
Calgary Springbank

Weather History for CYBW - November, 2014

Change the Weather History Date:

Tuesday, November 25, 2014

  Actual Average Record
Temperature  
Mean Temperature 30 °F -  
Max Temperature 37 °F 28 °F 50 °F (2005)
Min Temperature 23 °F 9 °F -16 °F (1996)
Degree Days  
Heating Degree Days 35    
Moisture  
Dew Point 21 °F    
Average Humidity 69    
Maximum Humidity 100    
Minimum Humidity 45    
Precipitation  
Precipitation 0.00 in - - ()
Sea Level Pressure  
Sea Level Pressure 30.04 in    
Wind  
Wind Speed 12 mph ()    
Max Wind Speed 25 mph    
Max Gust Speed 32 mph    
Visibility 9.0 miles    
Events Rain , Snow    
Averages and records for this station are not official NWS values.
T = Trace of Precipitation, MM = Missing Value Source: Averaged Metar Reports

Daily Weather History Graph

Daily Weather History Graph

Search for Another Location

Airport or City:

Astronomy

Nov. 25, 2014 Rise Set
Actual Time 8:10 AM MST 4:38 PM MST
Civil Twilight 7:32 AM MST 5:16 PM MST
Nautical Twilight 6:51 AM MST 5:57 PM MST
Astronomical Twilight 6:11 AM MST 6:36 PM MST
Moon 10:54 AM MST (11/25) 8:13 PM MST (11/25)
Length of Visible Light 9h 43m
Length of Day
8h 27m
Waxing Crescent, 13% of the Moon is Illuminated
Nov 25
Waxing Crescent
Nov 29
First Quarter
Dec 6
Full
Dec 14
Last Quarter
Dec 21
New

Hourly Weather History & Observations

Time (MST) Temp. Windchill Dew Point Humidity Pressure Visibility Wind Dir Wind Speed Gust Speed Precip Events Conditions
12:00 AM 37.4 °F 26.9 °F 19.4 °F 48% 29.78 in 9.0 mi West 20.7 mph 32.2 mph N/A   Overcast
1:00 AM 37.4 °F 26.1 °F 19.4 °F 48% 29.77 in 9.0 mi West 24.2 mph - N/A   Overcast
2:00 AM 37.4 °F 25.9 °F 17.6 °F 45% 29.78 in 9.0 mi West 25.3 mph 32.2 mph N/A   Overcast
3:00 AM 35.6 °F 24.5 °F 19.4 °F 52% 29.83 in 9.0 mi West 20.7 mph 27.6 mph N/A   Overcast
4:00 AM 33.8 °F 23.5 °F 19.4 °F 56% 29.86 in 9.0 mi WNW 16.1 mph - N/A   Scattered Clouds
4:19 AM 30.2 °F 19.3 °F 21.2 °F 69% 29.89 in 9.0 mi North 15.0 mph - N/A   Mostly Cloudy
4:29 AM 33.8 °F 24.3 °F 21.2 °F 60% 29.89 in 9.0 mi NW 13.8 mph 20.7 mph N/A   Mostly Cloudy
4:31 AM 33.8 °F 23.9 °F 21.2 °F 60% 29.88 in 9.0 mi NW 15.0 mph - N/A Rain Light Rain
4:37 AM 33.8 °F 23.9 °F 21.2 °F 60% 29.89 in 9.0 mi WNW 15.0 mph - N/A   Overcast
5:00 AM 33.8 °F 24.8 °F 19.4 °F 56% 29.91 in 9.0 mi WNW 12.7 mph - N/A   Overcast
5:31 AM 32.0 °F 24.8 °F 21.2 °F 64% 29.94 in 9.0 mi North 8.1 mph - N/A Rain Light Rain
5:33 AM 32.0 °F 24.8 °F 19.4 °F 60% 29.94 in 9.0 mi NNW 8.1 mph - N/A   Overcast
5:34 AM 32.0 °F 24.8 °F 19.4 °F 60% 29.94 in 9.0 mi NNW 8.1 mph - N/A Rain Light Rain
5:38 AM 30.2 °F 23.4 °F 21.2 °F 69% 29.94 in 9.0 mi NNW 6.9 mph - N/A   Overcast
6:00 AM 30.2 °F 22.6 °F 19.4 °F 64% 29.96 in 9.0 mi NNE 8.1 mph - N/A   Mostly Cloudy
7:00 AM 28.4 °F 20.4 °F 19.4 °F 69% 30.02 in 9.0 mi NNW 8.1 mph - N/A   Mostly Cloudy
7:21 AM 28.4 °F 18.5 °F 19.4 °F 69% 30.03 in 9.0 mi NNW 11.5 mph - N/A Snow Light Snow
7:32 AM 28.4 °F 18.5 °F 19.4 °F 69% 30.03 in 9.0 mi NNW 11.5 mph - N/A   Overcast
8:00 AM 28.4 °F 22.2 °F 19.4 °F 69% 30.06 in 9.0 mi NW 5.8 mph - N/A   Overcast
9:00 AM 28.4 °F 20.4 °F 19.4 °F 69% 30.07 in 9.0 mi NW 8.1 mph - N/A   Mostly Cloudy
10:00 AM 30.2 °F 23.4 °F 17.6 °F 60% 30.08 in 9.0 mi NW 6.9 mph - N/A   Unknown
11:00 AM 32.0 °F 23.0 °F 17.6 °F 55% 30.09 in 9.0 mi North 11.5 mph - N/A   Mostly Cloudy
12:00 PM 32.0 °F 21.6 °F 19.4 °F 60% 30.11 in 9.0 mi North 15.0 mph - N/A   Overcast
1:00 PM 32.0 °F 22.5 °F 21.2 °F 64% 30.12 in 9.0 mi NE 12.7 mph - N/A   Mostly Cloudy
2:00 PM 32.0 °F 25.6 °F 23.0 °F 69% 30.14 in 9.0 mi NE 6.9 mph - N/A   Mostly Cloudy
3:00 PM 30.2 °F 25.4 °F 23.0 °F 75% 30.17 in 9.0 mi North 4.6 mph - N/A   Mostly Cloudy
4:00 PM 30.2 °F - 23.0 °F 75% 30.21 in 9.0 mi Variable 2.3 mph - N/A   Overcast
5:00 PM 24.8 °F 16.1 °F 21.2 °F 86% 30.22 in 9.0 mi ENE 8.1 mph - N/A   Mostly Cloudy
6:00 PM 24.8 °F 17.9 °F 21.2 °F 86% 30.24 in 9.0 mi East 5.8 mph - N/A   Mostly Cloudy
7:00 PM 23.0 °F 18.4 °F 19.4 °F 86% 30.25 in 9.0 mi East 3.5 mph - N/A   Mostly Cloudy
8:00 PM 23.0 °F 17.0 °F 21.2 °F 93% 30.25 in 9.0 mi SSE 4.6 mph - N/A   Overcast
9:00 PM 24.8 °F 16.9 °F 23.0 °F 93% 30.25 in 9.0 mi SSE 6.9 mph - N/A   Overcast
10:00 PM 26.6 °F 18.2 °F 24.8 °F 93% 30.25 in 9.0 mi SE 8.1 mph - N/A   Overcast
11:00 PM 26.6 °F 20.0 °F 24.8 °F 93% 30.25 in 9.0 mi SE 5.8 mph - N/A   Overcast
11:18 PM 26.6 °F 21.2 °F 24.8 °F 93% 30.25 in 9.0 mi SE 4.6 mph - N/A   Overcast
11:26 PM 24.8 °F 17.9 °F 24.8 °F 100% 30.25 in 9.0 mi SE 5.8 mph - N/A   Overcast